Weather in Bugrino

Russia / Nenets Autonomous Okrug     68°46′57″N   49°18′48″E
temp.,
°C
wind,
m/s
gust,
m/s
humid.,
%
clouds,
%
prec.,
mm/h
press.,
hPa
HPBL,
m
27 february, sat
sat2700:00−15s71094100 0.4 1005413
03:00−15s71093100 0.6 1006373
06:00−15s71094100 0.2 1005383
09:00−14s71095100 0.8 1006434
12:00−14ssw6993100 0.4 1006446
15:00−13ssw5794100 1.1 1007429
18:00−13ssw5795100 0.4 1006282
21:00−15ssw459798 0.5 100655
28 february, sun
sun2800:00−16ssw449997 0.0 100538
03:00−16ssw349998 0.1 100533
06:00−14ssw339797 0.1 100555
09:00−14s349797 0.1 100641
12:00−12s349697 0.0 100648
15:00−12s339792 0.1 100724
18:00−11s339898 0.1 100725
21:00−10sw449999 0.1 100631
1 march, mon
mon100:00−9ssw61095100 0.1 1003193
03:00−9ssw91494100 0.2 1000325
06:00−7sw101695100 0.8 995396
09:00−5sw111795100 2.8 991503
12:00−2sw91396100 3.6 988481
15:00−1wsw5797100 5.1 987231
18:000w5898100 0.1 985257
21:00−2wsw5698100 0.2 98595
2 march, tue
tue200:00−4wsw589780 0.3 986167
03:00−4sw459787 0.4 98579
06:00−7sw559581 0.1 98452
09:00−9s559644 0.1 98473
12:00−7sse589561 0.1 984200
15:00−5ese469680 0.4 986185
18:00−6nne4596100 0.9 987136
21:00−7n51095100 2.0 990350
3 march, wed
wed300:00−6nnw91493100 0.8 991558
03:00−7nnw81391100 1.3 992427
06:00−9nw61091100 0.1 993207
09:00−11nw5696100 0.1 99399
12:00−10wnw469599 0.0 994106
15:00−11wnw349563 0.0 99423
18:00−13nnw229915 0.0 99321
21:00−14ne1110039 0.0 99320